THOR ABLESTAR R/B, 893

Orbit data source: Space-Track

THOR ABLESTAR R/B, 893 is space debris in LEO originally from a launch on Tue, 06 Oct 1964 UTC launched from the Air Force Western Test Range (AFWTR). Debris objects in space refer to the collection of defunct objects orbiting the Earth. Examples of debris include non-operational satellites, rocket bodies, and fragments generated from explosions, collisions, or faulty payload assembly.

Loading next visibility...
Identifier
893, 1964-063A
Orbit
LEO
Country
Flag of USUS
Related business
Manufacturer
Aerojet
Mission
Spacecraft
Bus & Motor
ABLESTAR, Unknown motor
Mass
~600 kg wet, 600 kg dry
Launch date (UTC)
1964-10-06 (61 years ago)
Launch vehicle
Unknown
Launch site
Air Force Western Test Range (AFWTR)
Object type
Payload
Rocket body
Debris
Shape & HBR
Unknown
Radar Cross Section
Large (>1 m²)

Expand to show TLE details & history
Last TLE update: 10 hours ago

TLE from 10 hours ago
0 THOR ABLESTAR R/B
1   893U 64063A   26015.13614422  .00000032  00000-0  33694-4 0  9990
2   893  90.2280  71.6341 0024123 313.3561  74.9328 13.56308649 31236
Epoch: 2026-01-15T03:16Z
TLE epoch observation values (Epoch: 2026-01-15T03:16:02.860Z)
Latitude
28.59771°
Longitude
-92.09559°
Altitude
1,048.117 km
Speed
7.333 km/s
True Right ascension
04h 46m 02s
True Declination
28° 27' 33"
Sunlit
Object was in full shadow at epoch
Visualization orbit readout
Latitude
Unknown
Longitude
Unknown
Altitude
Unknown
Speed
Unknown
Apparent Right ascension
Unknown
Apparent Declination
Unknown
Sunlit
N/A
Visualization observer readout
Local Sidereal Time
13:25:41
Azimuth
Unknown
Elevation
Unknown
Doppler factor
Unknown
Orbital elements
Apogee altitude
1,064.088 km
Perigee altitude
1,028.269 km
Semi-major axis
7,424.315 km
Eccentricity
0.00241
Inclination
90.228°
RAAN
71.6341°
Arg. of periapsis
313.3561°
True anomaly
75.19993°
Mean anomaly
74.9328°
Eccentric anomaly
75.06635°
Mean motion
3.3928 °/min
Orbital period
106.11 mins
BSTAR
0.000033694
Loading maneuver chart data...
Computing Atmospheric mass density...
Loading historical data...
Loading historical data...
Loading historical data...
Loading historical data...
Loading historical data...
Loading historical data...
Loading historical data...
Other satellites on launch #63 in the year 1964 (1964-10-06 UTC)

Documentation

Showing up to 5 results
|